Location: Sperry Observatory
(40.6664°N, 74.3236°W)
Time: 21:38:09
(UTC-04:00)

Amateur Radio Satellites - All Passes

Search period start: 17 September 2014 21:08
Search period end: 18 September 2014 21:08
Location: Sperry Observatory, 40.6664°N, 74.3236°W

Satellite Date Start Highest point End Downlink Frequencies (MHz)
Time Altitude Azimuth
AO-40 17 Sep 21:22:42 03:15:51 42° 162° (SSE) 04:57:54 Beacon 2401.320
Sapphire 17 Sep 21:27:51 21:32:51 36° 53° (NE) 21:37:49 437.095 MHz 1200 baud AX-25 AFSK
STRAND 1 17 Sep 21:27:52 21:30:36 15° 299° (WNW) 21:33:19 ?
HO-68 17 Sep 21:39:55 21:46:52 55° 259° (WSW) 21:53:53 435.675 MHz FM
PCSat 17 Sep 21:54:55 22:00:19 63° 58° (ENE) 22:05:41 145.825 MHz
KITSAT 1 17 Sep 21:59:56 22:06:53 30° 317° (NW) 22:13:51 435.175 FM
FUNcube-1 17 Sep 22:03:10 22:07:17 42° 72° (ENE) 22:11:32 145.950 - 145.970 MHz USB
Oscar 11 17 Sep 22:19:08 22:23:21 49° 261° (W) 22:27:37 145.825 FM, Beacon 2401.500 USB
UKube-1 17 Sep 22:34:39 22:38:06 23° 265° (W) 22:41:34 145.840 MHz, 145.915 MHz
SO-50 17 Sep 22:48:28 22:52:44 47° 117° (ESE) 22:57:08 436.795 FM
Sapphire 17 Sep 23:11:23 23:16:11 33° 250° (WSW) 23:20:58 437.095 MHz 1200 baud AX-25 AFSK
PCSat 17 Sep 23:39:41 23:43:11 18° 255° (WSW) 23:46:40 145.825 MHz
FUNcube-1 17 Sep 23:41:00 23:43:53 17° 268° (W) 23:46:50 145.950 - 145.970 MHz USB
KITSAT 1 18 Sep 00:03:04 00:05:31 11° 346° (NNW) 00:07:58 435.175 FM
SO-50 18 Sep 00:30:00 00:33:33 22° 316° (NW) 00:37:10 436.795 FM
UOSAT-12 18 Sep 00:37:25 00:41:51 50° 117° (ESE) 00:46:24 437.025 FM, 437.400 FM
Oscar 16 18 Sep 01:30:59 01:34:42 20° 93° (E) 01:38:23 437.025 USB, Beacon 2401.1428
AO-Echo 18 Sep 01:59:58 02:03:04 17° 93° (E) 02:06:13 ?
KITSAT 1 18 Sep 02:02:23 02:05:30 12° 18° (NNE) 02:08:35 435.175 FM
ITAMSAT 1 18 Sep 02:10:21 02:14:00 19° 93° (E) 02:17:38 435.822 SSB
Saudisat 1A 18 Sep 02:11:03 02:15:10 37° 51° (NE) 02:19:16 436.775 MHz
Uribyol 2 18 Sep 02:14:45 02:18:49 22° 94° (E) 02:22:51 436.500 FM
UOSAT-12 18 Sep 02:18:37 02:22:17 22° 316° (NW) 02:26:00 437.025 FM, 437.400 FM
Oscar 19 18 Sep 02:30:39 02:35:51 71° 102° (ESE) 02:40:58 437.125 CW, 437.150 USB
AO-27 18 Sep 02:43:54 02:48:48 40° 98° (E) 02:53:41 436.795 MHz FM
JAS-1B 18 Sep 03:04:27 03:10:13 65° 102° (ESE) 03:15:52 435.800 - 435.900 CW/SSB
Oscar 16 18 Sep 03:09:19 03:14:18 49° 289° (WNW) 03:19:15 437.025 USB, Beacon 2401.1428
OPAL 18 Sep 03:10:32 03:12:37 12° 56° (NE) 03:14:42 ?
PANSAT 18 Sep 03:11:09 03:12:17 11° 170° (S) 03:13:26 not established
ISS 18 Sep 03:15:56 03:19:06 42° 138° (SE) 03:22:17 145.800 FM
Gurwin Techsat 1B 18 Sep 03:25:43 03:30:51 47° 99° (E) 03:35:57 435.225 FM
AO-Echo 18 Sep 03:37:26 03:42:06 52° 288° (WNW) 03:46:54 ?
ITAMSAT 1 18 Sep 03:48:43 03:53:46 52° 289° (WNW) 03:58:48 435.822 SSB
Saudisat 1A 18 Sep 03:51:02 03:54:33 23° 248° (WSW) 03:58:02 436.775 MHz
Uribyol 2 18 Sep 03:53:31 03:58:27 44° 290° (WNW) 04:03:23 436.500 FM
KITSAT 1 18 Sep 03:56:35 04:03:51 35° 45° (NE) 04:11:04 435.175 FM
TMSAT-1 18 Sep 04:03:53 04:09:13 79° 103° (ESE) 04:14:31 436.925 FM
Oscar 19 18 Sep 04:11:43 04:14:34 15° 299° (WNW) 04:17:24 437.125 CW, 437.150 USB
AO-27 18 Sep 04:23:53 04:28:05 25° 295° (WNW) 04:32:17 436.795 MHz FM
RS-15 18 Sep 04:25:08 04:35:47 56° 113° (ESE) 04:46:16 29.354 - 29.394 USB, Beacon 29.352 USB
AO-7 18 Sep 04:37:31 04:45:06 38° 98° (E) 04:52:37 29.400 - 29.500 MHz
Oscar 10/S400 18 Sep 04:43:26 05:31:36 15° 254° (WSW) 06:52:16 145.825 - 145.975 CW/USB, Beacon 145.810 USB
OPAL 18 Sep 04:45:31 04:50:41 89° 74° (ENE) 04:55:57 ?
Uosat F 18 Sep 04:46:00 04:50:32 33° 97° (E) 04:55:03 435.120 FM
PANSAT 18 Sep 04:49:53 04:51:42 13° 183° (S) 04:53:31 not established
ISS 18 Sep 04:53:00 04:55:55 27° 335° (NNW) 04:58:50 145.800 FM
JAS-1B 18 Sep 04:56:44 05:00:16 17° 302° (WNW) 05:03:43 435.800 - 435.900 CW/SSB
Gurwin Techsat 1B 18 Sep 05:06:27 05:10:29 23° 296° (WNW) 05:14:30 435.225 FM
STRAND 1 18 Sep 05:26:56 05:29:10 13° 60° (ENE) 05:31:24 ?
TMSAT-1 18 Sep 05:45:46 05:48:26 14° 300° (WNW) 05:51:07 436.925 FM
JAS-2 18 Sep 05:48:59 05:53:51 25° 95° (E) 05:59:09 435.800 - 435.900 CW/SSB, 435.910 FM
KITSAT 1 18 Sep 05:51:46 05:59:40 61° 246° (WSW) 06:07:32 435.175 FM
Uosat F 18 Sep 06:24:57 06:29:12 28° 293° (WNW) 06:33:26 435.120 FM
OPAL 18 Sep 06:29:21 06:30:14 10° 270° (W) 06:31:07 ?
AO-7 18 Sep 06:30:09 06:37:59 49° 297° (WNW) 06:45:48 29.400 - 29.500 MHz
ISS 18 Sep 06:31:51 06:33:29 13° 355° (N) 06:35:07 145.800 FM
RS-15 18 Sep 06:37:57 06:48:22 46° 316° (NW) 06:58:47 29.354 - 29.394 USB, Beacon 29.352 USB
STRAND 1 18 Sep 07:02:34 07:07:39 81° 257° (WSW) 07:12:46 ?
Hamsat 18 Sep 07:03:48 07:08:05 76° 284° (WNW) 07:12:17 145.90 MHz
SO-50 18 Sep 07:20:09 07:24:43 42° 51° (NE) 07:29:20 436.795 FM
JAS-2 18 Sep 07:33:21 07:39:05 52° 288° (WNW) 07:45:32 435.800 - 435.900 CW/SSB, 435.910 FM
MaSat-1 18 Sep 07:37:38 07:39:30 12° 100° (E) 07:41:22 437.345 MHz
ISS 18 Sep 08:08:59 08:11:15 17° 16° (NNE) 08:13:30 145.800 FM
SO-67 18 Sep 08:09:35 08:13:03 87° 283° (WNW) 08:16:30 435.3500 MHz FM
AO-7 18 Sep 08:27:10 08:28:45 11° 318° (NW) 08:30:19 29.400 - 29.500 MHz
RS-15 18 Sep 08:56:56 09:04:33 21° 348° (NNW) 09:12:15 29.354 - 29.394 USB, Beacon 29.352 USB
SO-50 18 Sep 09:01:11 09:05:04 25° 248° (WSW) 09:08:58 436.795 FM
UOSAT-12 18 Sep 09:07:20 09:11:49 41° 51° (NE) 09:16:14 437.025 FM, 437.400 FM
HO-68 18 Sep 09:08:14 09:14:22 30° 95° (E) 09:20:27 435.675 MHz FM
MaSat-1 18 Sep 09:10:35 09:15:37 82° 296° (WNW) 09:20:37 437.345 MHz
ISS 18 Sep 09:45:10 09:48:29 64° 34° (NE) 09:51:47 145.800 FM
Oscar 11 18 Sep 10:07:18 10:11:08 30° 96° (E) 10:14:55 145.825 FM, Beacon 2401.500 USB
UKube-1 18 Sep 10:22:04 10:26:23 59° 101° (ESE) 10:30:41 145.840 MHz, 145.915 MHz
UOSAT-12 18 Sep 10:47:59 10:51:44 24° 248° (WSW) 10:55:25 437.025 FM, 437.400 FM
MaSat-1 18 Sep 10:50:46 10:53:07 13° 313° (NW) 10:55:26 437.345 MHz
HO-68 18 Sep 10:55:24 11:02:18 52° 293° (WNW) 11:09:11 435.675 MHz FM
RS-15 18 Sep 11:13:42 11:22:22 25° 25° (NNE) 11:31:12 29.354 - 29.394 USB, Beacon 29.352 USB
ISS 18 Sep 11:23:00 11:24:50 14° 230° (SW) 11:26:39 145.800 FM
FUNcube-1 18 Sep 11:28:31 11:33:11 85° 284° (WNW) 11:37:46 145.950 - 145.970 MHz USB
Oscar 11 18 Sep 11:43:41 11:47:10 24° 292° (WNW) 11:50:39 145.825 FM, Beacon 2401.500 USB
UKube-1 18 Sep 11:59:58 12:02:05 13° 297° (WNW) 12:04:12 145.840 MHz, 145.915 MHz
JAS-1B 18 Sep 12:03:23 12:05:55 12° 54° (NE) 12:08:20 435.800 - 435.900 CW/SSB
Sapphire 18 Sep 12:09:38 12:14:25 33° 110° (ESE) 12:19:14 437.095 MHz 1200 baud AX-25 AFSK
Oscar 19 18 Sep 12:11:26 12:13:44 13° 59° (ENE) 12:16:02 437.125 CW, 437.150 USB
PCSat 18 Sep 12:36:10 12:41:28 62° 115° (ESE) 12:46:50 145.825 MHz
Oscar 16 18 Sep 12:47:29 12:51:52 29° 67° (ENE) 12:56:17 437.025 USB, Beacon 2401.1428
AO-Echo 18 Sep 13:12:58 13:16:30 21° 66° (ENE) 13:20:01 ?
RS-15 18 Sep 13:26:15 13:37:19 67° 53° (NE) 13:48:49 29.354 - 29.394 USB, Beacon 29.352 USB
ITAMSAT 1 18 Sep 13:27:57 13:32:19 29° 66° (ENE) 13:36:42 435.822 SSB
Uribyol 2 18 Sep 13:32:16 13:36:51 33° 68° (ENE) 13:41:27 436.500 FM
JAS-1B 18 Sep 13:46:50 13:55:23 61° 71° (ENE) 14:02:34 435.800 - 435.900 CW/SSB
Oscar 19 18 Sep 13:47:08 13:52:20 84° 256° (WSW) 13:57:34 437.125 CW, 437.150 USB
TMSAT-1 18 Sep 13:47:20 13:50:23 16° 61° (ENE) 13:53:27 436.925 FM
AO-7 18 Sep 13:50:47 13:53:03 11° 43° (NE) 13:55:18 29.400 - 29.500 MHz
Sapphire 18 Sep 13:52:50 13:57:46 35° 308° (NW) 14:02:45 437.095 MHz 1200 baud AX-25 AFSK
AO-27 18 Sep 14:01:44 14:06:48 60° 72° (ENE) 14:11:54 436.795 MHz FM
PCSat 18 Sep 14:21:12 14:25:20 22° 314° (NW) 14:29:29 145.825 MHz
Oscar 16 18 Sep 14:26:22 14:31:05 35° 263° (W) 14:35:50 437.025 USB, Beacon 2401.1428
Gurwin Techsat 1B 18 Sep 14:46:28 14:51:44 72° 74° (ENE) 14:57:02 435.225 FM
Oscar 10/S400 18 Sep 14:47:39 15:03:26 24° 147° (SSE) 15:18:38 145.825 - 145.975 CW/USB, Beacon 145.810 USB
AO-Echo 18 Sep 14:50:34 14:55:02 40° 262° (W) 14:59:28 ?
ITAMSAT 1 18 Sep 15:07:01 15:11:41 34° 263° (W) 15:16:23 435.822 SSB
Uribyol 2 18 Sep 15:11:50 15:16:17 29° 264° (W) 15:20:48 436.500 FM
TMSAT-1 18 Sep 15:24:26 15:29:41 70° 258° (WSW) 15:35:00 436.925 FM
AO-7 18 Sep 15:35:59 15:43:53 51° 64° (ENE) 15:51:48 29.400 - 29.500 MHz
JAS-1B 18 Sep 15:38:51 15:46:07 29° 264° (W) 15:52:30 435.800 - 435.900 CW/SSB
RS-15 18 Sep 15:39:22 15:48:58 35° 254° (WSW) 15:58:58 29.354 - 29.394 USB, Beacon 29.352 USB
AO-27 18 Sep 15:43:34 15:46:42 16° 269° (W) 15:49:51 436.795 MHz FM
Uosat F 18 Sep 15:58:56 16:03:39 45° 70° (ENE) 16:08:25 435.120 FM
Gurwin Techsat 1B 18 Sep 16:29:39 16:32:13 14° 270° (W) 16:34:49 435.225 FM
OPAL 18 Sep 16:56:36 17:00:43 24° 96° (E) 17:04:47 ?
MaSat-1 18 Sep 17:28:50 17:31:30 17° 50° (NE) 17:33:55 437.345 MHz
AO-7 18 Sep 17:29:23 17:36:50 36° 262° (W) 17:44:20 29.400 - 29.500 MHz
Uosat F 18 Sep 17:39:00 17:42:39 20° 266° (W) 17:46:19 435.120 FM
JAS-2 18 Sep 17:46:00 17:51:14 64° 73° (ENE) 17:56:21 435.800 - 435.900 CW/SSB, 435.910 FM
Saudisat 1A 18 Sep 17:56:06 18:00:30 85° 302° (WNW) 18:04:56 436.775 MHz
Hamsat 18 Sep 17:56:20 18:00:40 73° 76° (ENE) 18:05:02 145.90 MHz
KITSAT 1 18 Sep 18:26:50 18:32:25 21° 102° (ESE) 18:37:59 435.175 FM
OPAL 18 Sep 18:34:53 18:39:44 41° 293° (WNW) 18:44:30 ?
SO-67 18 Sep 18:42:26 18:45:24 27° 72° (ENE) 18:48:21 435.3500 MHz FM
MaSat-1 18 Sep 19:05:02 19:08:26 32° 253° (WSW) 19:11:23 437.345 MHz
STRAND 1 18 Sep 19:13:45 19:18:26 35° 97° (E) 19:23:05 ?
JAS-2 18 Sep 19:34:14 19:36:51 14° 269° (W) 19:39:26 435.800 - 435.900 CW/SSB, 435.910 FM
HO-68 18 Sep 19:37:37 19:42:55 23° 58° (ENE) 19:48:13 435.675 MHz FM
Saudisat 1A 18 Sep 19:38:42 19:40:46 13° 321° (NW) 19:42:50 436.775 MHz
SO-67 18 Sep 20:16:17 20:18:27 16° 267° (W) 20:20:37 435.3500 MHz FM
KITSAT 1 18 Sep 20:18:45 20:26:51 82° 301° (WNW) 20:35:00 435.175 FM
STRAND 1 18 Sep 20:53:09 20:57:28 28° 294° (WNW) 21:01:48 ?
Sapphire 18 Sep 20:57:37 21:02:16 28° 49° (NE) 21:06:52 437.095 MHz 1200 baud AX-25 AFSK
